Location: Gallinara
(44.0333°N, 8.2333°E)
Time: 10:59:06
(UTC+00:00)

ATLAS 2AS CENTAUR R/B - Pass Details

Date: 25 September 2020
Orbit: 939 x 1273 km, 63.7° (Epoch: 19 October)

Event Time Altitude Azimuth Distance (km) Brightness Sun altitude
Rises 01:55:09 0° 322° (NW) 4,179 5.8 -34.7°
Reaches altitude 10° 01:58:21 10° 332° (NNW) 3,172 5.2 -34.3°
Maximum altitude 02:05:10 34° 35° (NE) 1,808 4.3 -33.3°
Drops below altitude 10° 02:11:30 10° 99° (E) 2,949 5.5 -32.4°
Sets 02:14:21 0° 109° (ESE) 3,851 6.1 -32.0°
